This is the latest recevied weather packets stored in our database for station/object N7WSS. If no packets are shown the sender has not sent any weather packets the latest 10 day(s).
| Time | Temp. | Humidity | Pressure | Rain* | Wind** | Luminosity | Snow |
|---|---|---|---|---|---|---|---|
| 1788371248 | 32.78° C | 46% | 1016.5 hPa | 0 mm | - | - | - |
| 1788370944 | 32.22° C | 47% | 1016.4 hPa | 0 mm | - | - | - |
| 1788370640 | 32.22° C | 46% | 1016.4 hPa | 0 mm | - | - | - |
| 1788370339 | 32.22° C | 47% | 1016.6 hPa | 0 mm | - | - | - |
| 1788370034 | 32.78° C | 47% | 1016.6 hPa | 0 mm | - | - | - |
| 1788369734 | 31.67° C | 47% | 1016.8 hPa | 0 mm | - | - | - |
| 1788369429 | 31.67° C | 49% | 1016.6 hPa | 0 mm | - | - | - |
| 1788369124 | 31.11° C | 51% | 1016.6 hPa | 0 mm | - | - | - |
| 1788368820 | 31.67° C | 48% | 1016.6 hPa | 0 mm | - | - | - |
| 1788368515 | 31.67° C | 49% | 1016.8 hPa | 0 mm | - | - | - |
| 1788368211 | 31.11° C | 50% | 1016.8 hPa | 0 mm | - | - | - |
| 1788367910 | 31.11° C | 49% | 1016.9 hPa | 0 mm | - | - | - |
| 1788367606 | 31.11° C | 50% | 1016.7 hPa | 0 mm | - | - | - |
| 1788367304 | 30.56° C | 51% | 1016.5 hPa | 0 mm | - | - | - |
| 1788367000 | 31.67° C | 49% | 1016.7 hPa | 0 mm | - | - | - |
| 1788366699 | 31.11° C | 50% | 1016.5 hPa | 0 mm | - | - | - |
| 1788366398 | 31.67° C | 49% | 1016.7 hPa | 0 mm | - | - | - |
| 1788366092 | 31.11° C | 52% | 1016.7 hPa | 0 mm | - | - | - |
| 1788365788 | 31.11° C | 51% | 1016.8 hPa | 0 mm | - | - | - |
| 1788365484 | 31.11° C | 49% | 1016.8 hPa | 0 mm | - | - | - |
| 1788365180 | 30.56° C | 52% | 1016.8 hPa | 0 mm | - | - | - |
| 1788364875 | 30° C | 53% | 1016.7 hPa | 0 mm | - | - | - |
| 1788364573 | 30° C | 53% | 1016.8 hPa | 0 mm | - | - | - |
| 1788364272 | 30.56° C | 53% | 1016.9 hPa | 0 mm | - | - | - |
| 1788363968 | 30° C | 52% | 1016.7 hPa | 0 mm | - | - | - |
* Rain latest hour (hover to see other rain measurements)
** Current wind speed in m/s (hover to see current wind gust speed)